Terminal Aerodrome Forecast
Issued by NWS Jackson, MS

Home | Current Version | Previous Version | Text Only | Print | Product List | Glossary On
Versions: 1 2 3 4 5 6 7 8 9 10 11 12 13 14 15 16 17 18 19 20 21 22 23 24 25 26 27 28 29 30 31 32 33 34 35 36 37 38
000
FTUS44 KMEG 191726
TAFTUP
TAF
KTUP 191726Z 1918/2018 23009G15KT P6SM SCT040 BKN100
     FM200000 21010KT P6SM VCTS BKN030CB OVC100
      TEMPO 2004/2008 VRB15G30KT 1SM +TSRA OVC025CB
     FM200900 22010KT P6SM OVC080
     FM201400 24010KT P6SM SCT030 BKN100=

USA.gov is the U.S. government's official web portal to all federal, state and local government web resources and services.